Regional Weather Roundup
Issued by NWS

Home | Current Version | Previous Version | Text Only | Print | Product List | Glossary Off
Versions: 1 2 3 4 5 6 7 8 9 10 11 12 13 14 15 16 17 18 19 20 21 22 23 24 25 26 27 28 29 30 31 32 33 34 35 36 37 38 39 40 41 42 43 44 45 46 47 48 49 50

904
ASUS44 KLIX 230505
RWRLA
LOUISIANA WEATHER ROUNDUP
NATIONAL WEATHER SERVICE NEW ORLEANS LA
1200 AM CDT SAT AUG 23 2014

NOTE: "FAIR" INDICATES FEW OR NO CLOUDS BELOW 12,000 FEET WITH NO
      SIGNIFICANT WEATHER AND/OR OBSTRUCTIONS TO VISIBILITY.
      SKY/WX - SKY CONDITION AND SIGNIFICANT WEATHER.
      TMP - AIR TEMPERATURE.    DP   - DEWPOINT TEMPERATURE.
      RH  - RELATIVE HUMIDITY.  PRES - PRESSURE.
      HX  - HEAT INDEX.         WCI  - WIND CHILL INDEX.

*  THESE STATIONS ARE NOT NWS OR FAA STATIONS AND ARE NOT UNDER
   NWS QUALITY CONTROL.

LAZ040-048-061>063-065-066-069-230600-
SOUTHEAST LOUISIANA

CITY           SKY/WX    TMP DP  RH WIND       PRES   REMARKS
N.O. AUDUBON     N/A     83  78  83 MISG        N/A
N.O. INTL ARPT CLEAR     83  75  77 SW8       30.03S
N.O. LAKEFRONT CLEAR     86  72  62 SW9       30.03S
N.O. DOWNTOWN* FAIR      84  72  65 CALM      30.04S
SLIDELL        CLEAR     79  75  87 CALM      30.02S
BATON ROUGE    CLEAR     79  75  87 SW5       30.03S
BOOTHVILLE     CLEAR     85  76  74 S7        30.04S
BELLE CHASSE   CLEAR     81  75  82 W3        30.03S
BOGALUSA*      FAIR      81  74  81 CALM      30.04S
GALLIANO*      NOT AVBL
NEW ROADS*     FAIR      77  76  94 CALM      30.03S
GONZALES*      FAIR      80  80  99 CALM      30.03S
HAMMOND*       CLEAR     79  73  83 CALM      30.05S
HOUMA*         CLEAR     78  75  90 CALM      30.03F
PORT FOURCHON* CLEAR     86  75  70 SW5       30.05S HX  95

$$

LAZ041-044-053-054-230600-
SOUTHWEST LOUISIANA

CITY           SKY/WX    TMP DP  RH WIND       PRES   REMARKS
LAKE CHARLES   CLEAR     80  77  90 CALM      30.03S
LAFAYETTE      CLEAR     81  76  84 SW3       30.03F
PATTERSON      CLEAR     79  79 100 CALM      30.06F
SALT POINT       N/A     88  77  69 VRB5      30.02F HX 100
NEW IBERIA     CLEAR     80  77  90 CALM      30.04S
CHENAULT AIRPK CLEAR     83  75  77 CALM      30.04S

$$

LAZ027-028-230600-
CENTRAL LOUISIANA

CITY           SKY/WX    TMP DP  RH WIND       PRES   REMARKS
FORT POLK      CLEAR     80  74  81 CALM      30.03S
ALEXANDRIA INT CLEAR     76  74  93 CALM      30.01S
ALEXANDRIA     CLEAR     77  74  90 CALM      30.02F

$$

LAZ001-002-230600-
NORTHWEST LOUISIANA

CITY           SKY/WX    TMP DP  RH WIND       PRES   REMARKS
SHREVEPORT     CLEAR     81  72  74 SW5       30.00R
BARKSDALE AFB  CLEAR     76  71  84 SE5       30.01R
DTN SHREVEPORT CLEAR     84  71  65 S10       30.00R

$$

LAZ014-016-230600-
NORTHEAST LOUISIANA

CITY           SKY/WX    TMP DP  RH WIND       PRES   REMARKS
MONROE         CLEAR     77  73  87 CALM      30.02S
TALLULAH       CLEAR     73  71  93 CALM      30.01F

$$




USA.gov is the U.S. government's official web portal to all federal, state and local government web resources and services.